Starlink 30404

operational
NORAD ID: 57853 Int'l Des: 2023-141 Owner: SPXS Country: US Constellation: starlink
LEOCIRCULAR

Starlink 30404について

説明を読み込み中...

リアルタイム位置

3D地球を読み込み中...

次回通過

高度履歴

Altitude vs Time

uPlot chart will show altitude changes over time

軌道要素

1 57853U 23141P 26034.40163181 -.00004007 00000-0 -12318-3 0 9999
2 57853 53.1600 83.0135 0001542 92.7376 267.3801 15.30209817135081
Epoch: Feb 3, 2026 • Age: 20 hours

現在のステータス

高度 494.5 km
速度 7.62 km/s
衛星直下点 -52.61°S, 117.99°E
打ち上げ日 Sep 12, 2023
運用期間 2.3 years
タイプ internet

技術仕様

分類 Payload
質量 730.00 kg
乾燥質量 700.00 kg
総質量 730.00 kg
長さ 0.30 m
直径 4.10 m
スパン 29.00 m
形状 Box + pan
製造者 SPXS
バスタイプ Starlink V2M
フェーズステータス In Orbit
所有者/国 SPXS/US

大規模コンステレーション

Loading constellations...